Location: Corte Bragagnani
(45.3000°N, 11.1000°E)
Time: 09:10:18
(UTC+00:00)

Resurs 01 Rocket - Pass Details

Date: 09 April 2020
Orbit: 635 x 643 km, 98.0° (Epoch: 24 May)

Event Time Altitude Azimuth Distance (km) Brightness Sun altitude
Exits shadow 20:55:17 15° 241° (WSW) 1,725 3.9 -28.0°
Maximum altitude 20:56:58 18° 268° (W) 1,571 4.0 -28.1°
Drops below altitude 10° 20:59:59 10° 312° (NW) 2,033 5.1 -28.5°
Sets 21:02:51 0° 331° (NNW) 2,949 6.2 -28.8°
